Home   Weather   Longyearbyen   Past weeks

Flag for Norway Past Weather in Longyearbyen, Svalbard, Norway — Yesterday and Last 2 Weeks

Now
34 °F

Broken clouds.


Feels Like: 22 °F
Forecast: 23 / 35 °F
Wind: 21 mph from Southwest

Location: Svalbard Lufthavn

Current Time: Apr 28, 2017 at 12:17:37 pm

Latest Report: Apr 28, 2017 at 11:20 am


Visibility: N/A

Pressure: 29.74 "Hg

Humidity: 81%

Dew Point: 28 °F

Location of LongyearbyenLocation

Past Weather in Longyearbyen — Graph

°F

Longyearbyen Temperature Yesterday

Maximum temperature yesterday: 30 °F (at 4:50 pm)
Minimum temperature yesterday: 25 °F (at 1:50 am)
Average temperature yesterday: 28 °F

High & Low Weather Summary for the Past Weeks

 TemperatureHumidityPressure
High36 °F (Apr 28, 7:50 am)93% (Apr 14, 4:50 am)30.24 "Hg (Apr 14, 4:50 am)
Low0 °F (Apr 16, 3:50 am)46% (Apr 20, 9:20 am)29.68 "Hg (Apr 28, 6:50 am)
Average17 °F70%30.01 "Hg
* Reported Apr 13 10:50 am — Apr 28 10:50 am, Longyearbyen, Weather by CustomWeather, © 2017

Note: Actual official high and low records may vary slightly from our data, if they occured in-between our weather recording intervals... More about our weather records

Advertising

Longyearbyen Weather History for the Previous 24 Hours

Scroll right to see more
 ConditionsComfort  
Time TempWeatherWind HumidityBarometerVisibility
10:50 am
Fri, Apr 28
34 °FBroken clouds.20 mph81%29.71 "HgN/A
10:20 am34 °FScattered showers. Broken clouds.21 mph81%29.71 "HgN/A
9:50 am34 °FLight snow. Fog.16 mph81%29.71 "Hg4 mi
9:20 am34 °FLight rain. Partly sunny.13 mph87%29.68 "HgN/A
8:50 am36 °FDrizzle. Broken clouds.18 mph75%29.68 "HgN/A
8:20 am36 °FPartly sunny.12 mph75%29.68 "HgN/A
7:50 am36 °FScattered showers. Partly sunny.13 mph70%29.68 "HgN/A
6:50 am34 °FBroken clouds.12 mph70%29.68 "HgN/A
5:50 am32 °FBroken clouds.13 mph75%29.71 "HgN/A
4:50 am32 °FSnow flurries. Broken clouds.13 mph69%29.74 "HgN/A
2:50 am30 °FBroken clouds.23 mph75%29.77 "HgN/A
1:50 am32 °FSnow flurries. Broken clouds.20 mph69%29.77 "HgN/A
1:20 am30 °FLight snow. Broken clouds.15 mph69%29.80 "HgN/A
12:50 am30 °FSnow flurries. Broken clouds.14 mph69%29.80 "HgN/A
12:20 am30 °FLight snow. Broken clouds.12 mph69%29.80 "HgN/A
11:50 pm
Thu, Apr 27
30 °FSnow flurries. Broken clouds.15 mph69%29.80 "HgN/A
11:20 pm30 °FSnow flurries. Broken clouds.16 mph69%29.80 "HgN/A
10:50 pm30 °FSnow flurries. Broken clouds.17 mph69%29.80 "HgN/A
10:20 pm30 °FSnow flurries. Partly sunny.14 mph75%29.80 "HgN/A
9:50 pm28 °FLight snow. Broken clouds.15 mph86%29.83 "Hg4 mi
9:20 pm28 °FSnow flurries. Broken clouds.21 mph86%29.83 "Hg5 mi
8:50 pm28 °FSnow flurries. Broken clouds.13 mph80%29.83 "Hg5 mi
7:50 pm30 °FSnow flurries. Ice fog.12 mph80%29.83 "Hg2 mi
6:50 pm28 °FLight snow. Ice fog.12 mph80%29.83 "Hg2 mi
5:50 pm28 °FPartly sunny.10 mph80%29.83 "HgN/A
4:50 pm30 °FPartly sunny.12 mph75%29.83 "HgN/A
3:50 pm28 °FLight mixture of precip. Partly sunny.16 mph80%29.83 "HgN/A
2:50 pm28 °FSnow flurries. Partly sunny.17 mph80%29.83 "HgN/A
2:20 pm28 °FSnow flurries. Partly sunny.15 mph80%29.83 "Hg4 mi
1:50 pm28 °FSnow flurries. Partly sunny.20 mph80%29.83 "Hg4 mi
1:20 pm28 °FSnow flurries. Partly sunny.22 mph80%29.83 "Hg4 mi
12:50 pm28 °FLight mixture of precip. Broken clouds.16 mph86%29.83 "HgN/A
12:20 pm27 °FLight snow. Broken clouds.16 mph93%29.83 "Hg4 mi
Weather by CustomWeather, © 2017

See weather overviewHow to use our weather pages